Location: *
(32.8667°N, 13.1833°E)
Time: 21:31:51
(UTC+00:00)

NOSS 3-1 (C) - Pass Details

Date: 18 July 2019
Orbit: 775 x 1433 km, 63.4° (Epoch: 11 August)

Event Time Altitude Azimuth Distance (km) Brightness Sun altitude
Exits shadow 20:55:02 27° 228° (SW) 1,524 4.4 -26.8°
Maximum altitude 20:58:02 65° 302° (WNW) 926 3.5 -27.2°
Drops below altitude 10° 21:04:01 10° 24° (NNE) 2,638 6.1 -27.9°
Sets 21:06:46 0° 28° (NNE) 3,682 6.9 -28.2°
